Погода в Ивановке

Россия / Республика Башкортостан     52°45′53″N   55°43′46″E
темп.,
°C
ветер,
м/с
пор.,
м/с
влажн.,
%
обл.,
%
осадки,
мм/ч
давл.,
гПа
погр.,
м
4 августа, ср
ср423:00+29ююз112636 0.0 101111
02:00+24юз223411 0.0 101211
05:00+23юз22375 0.0 101312
08:00+28юв223032 0.0 1012111
11:00+34юз231980 0.0 1012868
14:00+37з341443 0.0 10113689
17:00+34юв561752 0.0 1010810
20:00+32ююз361996 0.0 1010109
5 августа, чт
чт523:00+26вюв333193 0.0 101037
02:00+24ююв4133430 0.0 1010313
05:00+24ююв41134100 0.0 1009208
08:00+25ююз353377 0.0 1010193
11:00+31з4422100 0.0 10101044
14:00+33с5425100 0.0 10091775
17:00+30с5733100 0.2 1009544
20:00+24ссз475168 0.2 1010275
6 августа, пт
пт623:00+19с347293 0.8 101151
02:00+16ссв37870 0.0 1012120
05:00+16с513961 0.0 1012302
08:00+18с612780 0.0 1013453
11:00+24с784216 0.0 10141253
14:00+27с782932 0.0 10132117
17:00+28с672547 0.0 10132393
20:00+25с5831100 0.0 1013497
7 августа, сб
сб723:00+18ссв34533 0.0 101562
02:00+15ссв33665 0.0 101635
05:00+14ссв33736 0.0 101744
08:00+18с3659100 0.0 1018226
11:00+24ссв453714 0.0 10171355
14:00+28с66255 0.0 10161809
17:00+29с67235 0.0 10162101
20:00+25ссв58285 0.0 1017573
8 августа, вс
вс823:00+18всв34485 0.0 101861
02:00+17всв2253100 0.0 101812
05:00+16св2255100 0.0 102011
08:00+20св234491 0.0 1020176
11:00+27св223070 0.0 10191029
14:00+31ссз322599 0.0 10181969
17:00+32сз32235 0.0 10172058
20:00+28зсз2329100 0.0 101735